FW8272 Weather Reports


time (UTC)temp
F
wind
direction
speed
knots
gust
knots
rain 1hr
in
rain 24hr
in
rain mn
in
humidity
%
barometer
mb
20260507140559 53 11 0.0 0.0 0.00 0.00 0.00 94 1015.5
20260507140057 53 260 0.0 0.0 0.00 0.00 0.00 95 1015.5
20260507135554 52 322 0.0 0.0 0.00 0.00 0.00 96 1015.6
20260507135051 52 272 0.0 0.0 0.00 0.00 0.00 96 1015.5
20260507134548 52 4 0.0 0.0 0.00 0.00 0.00 96 1015.4
20260507134043 51 291 0.0 0.0 0.00 0.00 0.00 96 1015.2
20260507133540 51 279 0.0 0.0 0.00 0.00 0.00 96 1015.3
20260507133038 51 316 0.0 0.0 0.00 0.00 0.00 96 1015.3
20260507132534 51 316 0.0 0.0 0.00 0.00 0.00 96 1015.4
20260507132031 51 319 0.0 0.0 0.00 0.00 0.00 96 1015.4
20260507131528 51 309 0.0 0.0 0.00 0.00 0.00 96 1015.3
20260507131025 51 309 0.0 0.0 0.00 0.00 0.00 96 1015.0
20260507130522 51 308 0.0 0.0 0.00 0.00 0.00 96 1015.1
20260507130020 51 308 0.0 0.0 0.00 0.00 0.00 96 1014.9
20260507125518 51 254 0.0 0.0 0.00 0.00 0.00 96 1014.9
20260507125015 51 263 0.0 0.0 0.00 0.00 0.00 96 1014.8
20260507124512 51 280 0.0 0.0 0.00 0.00 0.00 96 1015.0
20260507124009 51 293 0.0 0.0 0.00 0.00 0.00 96 1015.1
20260507123507 51 293 0.0 0.0 0.00 0.00 0.00 96 1014.8
20260507123003 51 293 0.0 0.0 0.00 0.00 0.00 96 1015.1
20260507122459 51 293 0.0 0.0 0.00 0.00 0.00 96 1014.7
20260507121955 51 293 0.0 0.0 0.00 0.00 0.00 96 1014.8
20260507121450 51 294 0.0 0.0 0.00 0.00 0.00 96 1014.7
20260507120947 51 294 0.0 0.0 0.00 0.00 0.00 96 1014.8
20260507120443 51 297 0.0 0.0 0.00 0.00 0.00 96 1015.0
20260507115940 51 297 0.0 0.0 0.00 0.00 0.00 96 1015.0
20260507115436 51 297 0.0 0.0 0.00 0.00 0.00 96 1014.8
20260507114932 52 297 0.0 0.0 0.00 0.00 0.00 95 1014.8
20260507114429 52 297 0.0 0.0 0.00 0.00 0.00 95 1014.9
20260507113926 52 301 0.0 0.0 0.00 0.00 0.00 96 1015.0
20260507113423 52 313 0.0 0.0 0.00 0.00 0.00 95 1014.9
20260507112920 52 276 0.0 0.0 0.00 0.00 0.00 95 1014.8
20260507112418 52 292 0.0 0.0 0.00 0.00 0.00 95 1015.0
20260507111915 52 308 0.0 0.0 0.00 0.00 0.00 95 1015.1
20260507111412 53 310 0.0 0.0 0.00 0.00 0.00 95 1015.1
20260507110908 53 311 0.0 0.0 0.00 0.00 0.00 95 1014.8
20260507110404 53 302 0.0 0.0 0.00 0.00 0.00 95 1015.3
20260507105901 53 302 0.0 0.0 0.00 0.00 0.00 95 1015.0
20260507105358 53 275 0.0 0.0 0.00 0.00 0.00 95 1015.0
20260507104855 53 320 0.0 0.0 0.00 0.00 0.00 95 1015.4
20260507104351 53 338 0.0 0.0 0.00 0.00 0.00 95 1015.2
20260507103847 53 348 0.0 0.0 0.00 0.00 0.00 95 1015.3
20260507103344 53 271 0.0 0.0 0.00 0.00 0.00 95 1015.3
20260507102840 53 311 0.0 0.0 0.00 0.00 0.00 95 1015.2
20260507102337 53 29 0.0 0.0 0.00 0.00 0.00 95 1015.3
20260507101834 53 24 0.0 0.0 0.00 0.00 0.00 95 1015.5
20260507101333 53 317 0.0 0.0 0.00 0.00 0.00 95 1015.2
20260507100831 53 312 0.0 0.0 0.00 0.00 0.00 95 1015.3
20260507100329 53 305 0.0 0.0 0.00 0.00 0.00 95 1015.5
20260507095827 53 313 0.0 0.0 0.00 0.00 0.00 94 1015.5
20260507095323 53 315 0.0 0.0 0.00 0.00 0.00 94 1015.6
20260507094821 54 322 0.0 0.0 0.00 0.00 0.00 94 1015.5
20260507094317 54 315 0.0 0.0 0.00 0.00 0.00 94 1015.4
20260507093814 54 317 0.0 0.0 0.00 0.00 0.00 94 1015.7
20260507093312 54 313 0.0 0.0 0.00 0.00 0.00 94 1015.5
20260507092810 54 319 0.0 0.0 0.00 0.00 0.00 94 1015.9
20260507092307 54 283 0.0 0.0 0.00 0.00 0.00 94 1015.8
20260507091803 54 292 0.0 0.0 0.00 0.00 0.00 94 1015.6
20260507091259 54 327 0.0 0.0 0.00 0.00 0.00 94 1015.7
20260507090759 55 320 0.0 0.0 0.00 0.00 0.00 94 1015.7
20260507090256 55 327 0.0 0.0 0.00 0.00 0.00 94 1015.8
20260507085753 55 349 0.0 0.0 0.00 0.00 0.00 94 1015.6
20260507085250 55 328 0.0 0.0 0.00 0.00 0.00 94 1015.6
20260507084747 55 305 0.0 0.0 0.00 0.00 0.00 94 1015.8
20260507084243 55 324 0.0 0.0 0.00 0.00 0.00 94 1016.0
20260507083741 55 291 0.0 0.0 0.00 0.00 0.00 94 1015.9
20260507083238 55 321 0.0 0.0 0.00 0.00 0.00 94 1016.0
20260507082734 55 346 0.0 0.0 0.00 0.00 0.00 94 1016.1
20260507082229 55 331 0.0 0.0 0.00 0.00 0.00 94 1015.9
20260507081727 55 316 0.0 0.0 0.00 0.00 0.00 94 1016.2
20260507081223 55 320 0.0 0.0 0.00 0.00 0.00 94 1016.3
20260507080719 55 320 0.0 0.0 0.00 0.00 0.00 94 1016.1
20260507080215 55 305 0.0 0.0 0.00 0.00 0.00 94 1016.2
20260507075711 55 318 0.0 0.0 0.00 0.00 0.00 94 1016.2
20260507075208 56 310 0.0 0.0 0.00 0.00 0.00 93 1016.2
20260507074704 56 335 0.0 0.0 0.00 0.00 0.00 93 1016.1
20260507074203 56 335 0.0 0.0 0.00 0.00 0.00 94 1016.4
20260507073658 56 336 0.0 0.0 0.00 0.00 0.00 94 1016.2
20260507073154 56 328 0.0 0.0 0.00 0.00 0.00 94 1016.4
20260507072653 56 315 0.0 0.0 0.00 0.00 0.00 93 1016.4
20260507072150 56 318 0.0 0.0 0.00 0.00 0.00 93 1016.3
20260507071648 56 310 0.0 0.0 0.00 0.00 0.00 93 1016.3
20260507071143 56 310 0.0 0.0 0.00 0.00 0.00 93 1016.5
20260507070641 57 310 0.0 0.0 0.00 0.00 0.00 93 1016.4
20260507070138 57 310 0.0 0.0 0.00 0.00 0.00 93 1016.5
20260507065634 57 310 0.0 0.0 0.00 0.00 0.00 93 1016.5
20260507065131 57 310 0.0 0.0 0.00 0.00 0.00 92 1016.5
20260507064628 57 317 0.0 0.0 0.00 0.00 0.00 92 1016.4
20260507064127 57 317 0.0 0.0 0.00 0.00 0.00 92 1016.3
20260507063624 57 272 0.0 0.0 0.00 0.00 0.00 92 1016.0
20260507063121 57 320 0.0 0.0 0.00 0.00 0.00 92 1016.2
20260507062617 57 320 0.0 0.0 0.00 0.00 0.00 91 1016.3
20260507062115 58 320 0.0 0.0 0.00 0.00 0.00 91 1016.5
20260507061613 58 320 0.0 0.0 0.00 0.00 0.00 91 1016.4
20260507061111 58 329 0.0 0.0 0.00 0.00 0.00 91 1016.4
20260507060609 59 321 0.0 0.0 0.00 0.00 0.00 91 1016.3
20260507060105 59 29 0.0 0.9 0.00 0.00 0.00 91 1016.4
20260507055600 58 321 0.0 0.0 0.00 0.00 0.00 91 1016.3
20260507055056 59 318 0.0 0.0 0.00 0.00 0.00 90 1016.6
20260507054553 59 318 0.0 0.0 0.00 0.00 0.00 90 1016.4
20260507054050 59 319 0.0 0.0 0.00 0.00 0.00 90 1016.5
20260507053548 59 273 0.0 0.0 0.00 0.00 0.00 90 1016.5
20260507053046 59 277 0.0 0.0 0.00 0.00 0.00 90 1016.5
20260507052543 60 277 0.0 0.0 0.00 0.00 0.00 90 1016.4
20260507052040 60 331 0.0 0.0 0.00 0.00 0.00 90 1016.5
20260507051538 60 343 0.0 0.0 0.00 0.00 0.00 90 1016.7
20260507051034 60 329 0.0 0.0 0.00 0.00 0.00 89 1016.3
20260507050531 60 335 0.0 0.0 0.00 0.00 0.00 89 1016.3
20260507050027 60 325 0.0 0.0 0.00 0.00 0.00 88 1016.5
20260507045524 60 321 0.0 0.0 0.00 0.00 0.00 88 1016.3
20260507045021 61 309 0.0 0.0 0.00 0.00 0.00 88 1016.3
20260507044518 61 293 0.9 0.9 0.00 0.00 0.00 88 1016.4
20260507044015 61 303 0.0 0.0 0.00 0.00 0.00 88 1016.4
20260507043511 61 304 0.0 0.0 0.00 0.00 0.00 87 1016.3
20260507043008 61 309 0.0 0.0 0.00 0.00 0.00 87 1016.6
20260507042504 61 325 0.0 0.0 0.00 0.00 0.00 86 1016.3
20260507041959 62 305 0.0 0.9 0.00 0.00 0.00 86 1016.6
20260507041457 62 318 0.0 0.0 0.00 0.00 0.00 86 1016.4
20260507040954 62 266 0.0 0.9 0.00 0.00 0.00 85 1016.3
20260507040449 62 307 0.0 0.9 0.00 0.00 0.00 85 1016.5
20260507035945 62 318 0.0 0.0 0.00 0.00 0.00 84 1016.2
20260507035442 62 308 0.0 0.0 0.00 0.00 0.00 84 1016.2
20260507034939 62 311 0.0 0.9 0.00 0.00 0.00 84 1016.0
20260507034436 62 7 0.0 0.0 0.00 0.00 0.00 84 1016.1
20260507033934 62 330 0.0 0.0 0.00 0.00 0.00 85 1016.2
20260507033431 62 329 0.9 1.7 0.00 0.00 0.00 85 1015.9
20260507032928 62 287 0.0 0.0 0.00 0.00 0.00 85 1016.2
20260507032425 63 304 0.0 0.0 0.00 0.00 0.00 84 1016.0
20260507031921 63 309 0.9 0.9 0.00 0.00 0.00 84 1016.1
20260507031418 63 316 0.0 0.0 0.00 0.00 0.00 84 1016.1
20260507030915 63 291 0.9 0.9 0.00 0.00 0.00 83 1015.8
20260507030412 63 312 0.0 0.0 0.00 0.00 0.00 82 1015.7
20260507025909 64 348 0.0 0.0 0.00 0.00 0.00 81 1015.8
20260507025406 64 286 0.0 0.0 0.00 0.00 0.00 81 1015.9
20260507024904 64 314 0.0 0.0 0.00 0.00 0.00 80 1015.9
20260507024401 64 285 0.9 1.7 0.00 0.00 0.00 80 1015.6
20260507023857 64 285 0.0 0.9 0.00 0.00 0.00 80 1015.8
20260507023354 64 310 0.9 0.9 0.00 0.00 0.00 79 1015.6
20260507022851 65 301 0.9 0.9 0.00 0.00 0.00 80 1015.5
20260507022348 65 311 0.0 0.0 0.00 0.00 0.00 80 1015.4
20260507021843 66 293 1.7 2.6 0.00 0.00 0.00 79 1015.7
20260507021339 67 298 1.7 2.6 0.00 0.00 0.00 78 1015.6
20260507020837 67 325 2.6 4.3 0.00 0.00 0.00 77 1015.5
20260507020334 67 289 2.6 2.6 0.00 0.00 0.00 77 1015.4
20260507015831 68 322 2.6 4.3 0.00 0.00 0.00 74 1015.5
20260507015329 68 300 1.7 2.6 0.00 0.00 0.00 74 1015.3
20260507014825 68 130 0.0 0.9 0.00 0.00 0.00 74 1015.2
20260507014322 69 313 0.9 0.9 0.00 0.00 0.00 72 1015.4
20260507013818 69 310 3.5 4.3 0.00 0.00 0.00 70 1015.3
20260507013315 69 314 0.9 1.7 0.00 0.00 0.00 70 1015.3
20260507012813 69 278 2.6 2.6 0.00 0.00 0.00 67 1015.2
20260507012309 69 282 2.6 4.3 0.00 0.00 0.00 65 1015.3
20260507011806 71 275 3.5 5.2 0.00 0.00 0.00 62 1015.4
20260507011302 70 280 2.6 2.6 0.00 0.00 0.00 61 1015.2
20260507010802 70 255 2.6 2.6 0.00 0.00 0.00 62 1015.2
20260507010258 71 300 5.2 7.0 0.00 0.00 0.00 61 1015.0
20260507005756 71 247 1.7 2.6 0.00 0.00 0.00 60 1015.1
20260507005252 71 290 1.7 1.7 0.00 0.00 0.00 59 1015.1
20260507004749 72 263 2.6 4.3 0.00 0.00 0.00 57 1014.9
20260507004246 71 263 2.6 4.3 0.00 0.00 0.00 57 1014.9
20260507003742 71 307 0.9 1.7 0.00 0.00 0.00 58 1015.0
20260507003238 71 266 5.2 7.0 0.00 0.00 0.00 57 1015.0
20260507002734 71 321 2.6 4.3 0.00 0.00 0.00 57 1015.1
20260507002230 72 268 2.6 2.6 0.00 0.00 0.00 57 1014.9
20260507001727 72 300 3.5 4.3 0.00 0.00 0.00 57 1015.1
20260507001225 71 280 4.3 6.1 0.00 0.00 0.00 59 1014.8
20260507000721 71 86 0.9 0.9 0.00 0.00 0.00 59 1014.8
20260507000216 71 304 6.1 7.8 0.00 0.00 0.00 60 1014.9
20260506235713 71 290 5.2 7.0 0.00 0.00 0.00 62 1014.9
20260506235209 72 299 2.6 2.6 0.00 0.00 0.00 63 1014.6
20260506234706 71 317 1.7 1.7 0.00 0.00 0.00 63 1014.7
20260506234203 71 273 1.7 2.6 0.00 0.00 0.00 63 1014.7
20260506233701 72 315 0.9 1.7 0.00 0.00 0.00 62 1014.5
20260506233157 71 298 2.6 2.6 0.00 0.00 0.00 62 1015.0
20260506232654 72 275 1.7 1.7 0.00 0.00 0.00 60 1014.7
20260506232148 72 307 2.6 2.6 0.00 0.00 0.00 62 1014.6
20260506231646 71 294 4.3 7.0 0.00 0.00 0.00 62 1014.9
20260506231145 71 270 5.2 7.0 0.00 0.00 0.00 63 1014.9
20260506230641 71 249 7.0 8.7 0.00 0.00 0.00 63 1015.0
20260506230138 71 264 2.6 4.3 0.00 0.00 0.00 63 1015.0
20260506225634 71 306 4.3 7.0 0.00 0.00 0.00 64 1015.0
20260506225131 71 275 5.2 7.0 0.00 0.00 0.00 65 1015.0
20260506224628 71 299 3.5 4.3 0.00 0.00 0.00 63 1015.0
20260506224124 71 278 6.1 7.0 0.00 0.00 0.00 64 1015.2
20260506223621 71 326 2.6 2.6 0.00 0.00 0.00 65 1015.1
20260506223117 71 241 3.5 5.2 0.00 0.00 0.00 64 1015.0
20260506222614 71 292 5.2 6.1 0.00 0.00 0.00 64 1015.2
20260506222110 71 293 7.8 9.6 0.00 0.00 0.00 66 1014.9
20260506221608 72 301 3.5 5.2 0.00 0.00 0.00 65 1015.2
20260506221106 71 256 0.9 1.7 0.00 0.00 0.00 66 1015.3
20260506220601 71 305 4.3 5.2 0.00 0.00 0.00 66 1015.5
20260506220057 71 294 1.7 2.6 0.00 0.00 0.00 67 1015.5
20260506215554 71 304 5.2 7.8 0.00 0.00 0.00 66 1015.5
20260506215049 70 279 7.8 8.7 0.00 0.00 0.00 66 1015.5
20260506214547 71 270 4.3 5.2 0.00 0.00 0.00 65 1015.4
20260506214044 71 290 5.2 7.0 0.00 0.00 0.00 66 1015.7
20260506213543 71 259 2.6 4.3 0.00 0.00 0.00 66 1015.7
20260506213040 71 317 2.6 4.3 0.00 0.00 0.00 66 1015.6
20260506212536 70 332 4.3 5.2 0.00 0.00 0.00 67 1016.0
20260506212030 70 309 2.6 4.3 0.00 0.00 0.00 65 1015.9
20260506211527 71 255 6.1 7.8 0.00 0.00 0.00 66 1015.7
20260506211024 71 245 4.3 7.0 0.00 0.00 0.00 65 1015.7
20260506210521 71 341 4.3 7.8 0.00 0.00 0.00 65 1015.9
20260506210017 70 217 2.6 4.3 0.00 0.00 0.00 65 1015.7
20260506205514 71 262 3.5 4.3 0.00 0.00 0.00 65 1015.7
20260506205009 70 330 5.2 7.0 0.00 0.00 0.00 66 1015.8
20260506204508 70 293 6.1 7.0 0.00 0.00 0.00 66 1016.1
20260506204004 70 257 6.1 7.8 0.00 0.00 0.00 67 1015.8
20260506203503 71 243 4.3 5.2 0.00 0.00 0.00 65 1016.0
20260506202959 71 280 2.6 2.6 0.00 0.00 0.00 65 1016.0
20260506202456 71 289 4.3 5.2 0.00 0.00 0.00 64 1016.1
20260506201952 71 288 3.5 5.2 0.00 0.00 0.00 65 1016.0
20260506201450 70 269 4.3 5.2 0.00 0.00 0.00 66 1016.2
20260506200946 70 290 1.7 1.7 0.00 0.00 0.00 66 1016.1
20260506200443 70 260 2.6 5.2 0.00 0.00 0.00 65 1016.4
20260506195939 70 296 4.3 6.1 0.00 0.00 0.00 67 1016.3
20260506195436 71 300 4.3 7.0 0.00 0.00 0.00 65 1016.3
20260506194933 70 335 2.6 5.2 0.00 0.00 0.00 66 1016.4
20260506194430 71 273 0.9 1.7 0.00 0.00 0.00 65 1016.4
20260506193927 71 275 4.3 5.2 0.00 0.00 0.00 65 1016.5
20260506193424 71 297 4.3 6.1 0.00 0.00 0.00 65 1016.5
20260506192920 71 277 2.6 4.3 0.00 0.00 0.00 65 1016.2
20260506192417 71 320 4.3 6.1 0.00 0.00 0.00 65 1016.6
20260506191914 71 280 4.3 6.1 0.00 0.00 0.00 65 1016.7
20260506191410 71 313 4.3 6.1 0.00 0.00 0.00 64 1016.6
20260506190908 71 255 5.2 7.0 0.00 0.00 0.00 63 1016.6
20260506190404 71 326 2.6 4.3 0.00 0.00 0.00 64 1016.6
20260506185901 72 255 5.2 7.0 0.00 0.00 0.00 62 1016.5
20260506185358 73 274 3.5 4.3 0.00 0.00 0.00 60 1016.6
20260506184855 72 280 2.6 2.6 0.00 0.00 0.00 62 1016.8
20260506184352 71 313 0.0 0.9 0.00 0.00 0.00 62 1017.0
20260506183849 71 323 0.9 1.7 0.00 0.00 0.00 61 1016.8
20260506183344 73 295 3.5 6.1 0.00 0.00 0.00 60 1017.0
20260506182842 72 325 0.0 0.9 0.00 0.00 0.00 59 1017.0
20260506182339 71 335 1.7 1.7 0.00 0.00 0.00 62 1016.7
20260506181837 72 245 3.5 4.3 0.00 0.00 0.00 60 1017.1
20260506181335 71 320 0.0 0.9 0.00 0.00 0.00 62 1017.1
20260506180831 71 280 0.9 0.9 0.00 0.00 0.00 63 1017.1
20260506180327 70 313 4.3 7.0 0.00 0.00 0.00 62 1017.2
20260506175824 74 319 0.9 0.9 0.00 0.00 0.00 55 1017.1
20260506175321 74 343 0.0 0.0 0.00 0.00 0.00 51 1017.3
20260506174818 73 334 0.0 0.9 0.00 0.00 0.00 52 1017.3
20260506174315 71 78 0.9 0.9 0.00 0.00 0.00 57 1017.4
20260506173813 70 339 0.0 0.9 0.00 0.00 0.00 58 1017.5
20260506173309 69 341 0.0 0.0 0.00 0.00 0.00 58 1017.4
20260506172806 68 332 0.0 0.0 0.00 0.00 0.00 59 1017.4
20260506172306 69 320 0.9 1.7 0.00 0.00 0.00 60 1017.4
20260506171800 69 292 0.0 0.9 0.00 0.00 0.00 61 1017.5
20260506171257 68 300 0.9 2.6 0.00 0.00 0.00 63 1017.7
20260506170755 68 320 0.0 0.0 0.00 0.00 0.00 64 1017.5
20260506170251 68 312 0.0 0.0 0.00 0.00 0.00 63 1017.4
20260506165750 68 318 0.0 0.0 0.00 0.00 0.00 64 1017.7
20260506165247 66 333 0.0 0.0 0.00 0.00 0.00 67 1017.6
20260506164744 67 315 0.0 0.0 0.00 0.00 0.00 68 1017.7
20260506164240 66 291 1.7 1.7 0.00 0.00 0.00 70 1017.7
20260506163737 66 345 0.0 0.0 0.00 0.00 0.00 69 1017.7
20260506163232 65 36 0.0 0.0 0.00 0.00 0.00 70 1017.5
20260506162728 65 298 1.7 1.7 0.00 0.00 0.00 71 1017.9
20260506162226 64 291 0.0 0.0 0.00 0.00 0.00 74 1017.8
20260506161723 64 256 2.6 4.3 0.00 0.00 0.00 74 1017.5
20260506161220 65 290 0.0 0.0 0.00 0.00 0.00 74 1017.4
20260506160718 66 305 0.0 0.0 0.00 0.00 0.00 72 1017.5
20260506160214 65 321 0.0 0.0 0.00 0.00 0.00 74 1017.5
20260506155713 63 339 0.0 0.0 0.00 0.00 0.00 77 1017.5
20260506155210 64 331 0.0 0.0 0.00 0.00 0.00 76 1017.6
20260506153317 59 278 0.0 0.0 0.00 0.00 0.00 82 1017.7
20260506152814 59 321 0.0 0.0 0.00 0.00 0.00 83 1017.6
20260506152311 58 309 0.0 0.0 0.00 0.00 0.00 83 1017.5
20260506151810 57 320 0.0 0.0 0.00 0.00 0.00 83 1017.6
20260506151307 57 320 0.0 0.0 0.00 0.00 0.00 83 1017.6
20260506150803 58 298 0.0 0.0 0.00 0.00 0.00 83 1017.5
20260506150304 57 325 0.0 0.0 0.00 0.00 0.00 83 1017.8
20260506145757 57 343 0.0 0.0 0.00 0.00 0.00 86 1017.6
20260506145254 56 338 0.0 0.0 0.00 0.00 0.00 86 1017.8
20260506144751 55 280 0.0 0.0 0.00 0.00 0.00 88 1017.6
20260506144248 54 299 0.0 0.0 0.00 0.00 0.00 88 1017.4
20260506143746 53 314 0.0 0.0 0.00 0.00 0.00 90 1017.6
20260506143243 54 9 0.0 0.0 0.00 0.00 0.00 91 1017.6
20260506142741 52 317 0.0 0.0 0.00 0.00 0.00 92 1017.4
20260506142239 52 353 0.0 0.0 0.00 0.00 0.00 92 1017.5
20260506141738 51 23 0.0 0.0 0.00 0.00 0.00 93 1017.3
20260506141235 51 327 0.0 0.0 0.00 0.00 0.00 94 1017.2
20260506140732 50 347 0.0 0.0 0.00 0.00 0.00 95 1017.4